TimeCDT,TemperatureF,Dew PointF,Humidity,Sea Level PressureIn,VisibilityMPH,Wind Direction,Wind SpeedMPH,Gust SpeedMPH,PrecipitationIn,Events,Conditions,WindDirDegrees,DateUTC
12:53 AM,79.0,75.0,88,30.03,10.0,SW,4.6,-,N/A,,Clear,230,2013-06-13 05:53:00
1:53 AM,77.0,75.0,94,30.02,10.0,WSW,5.8,-,N/A,,Clear,250,2013-06-13 06:53:00
2:53 AM,77.0,73.9,90,30.02,10.0,Calm,Calm,-,N/A,,Clear,0,2013-06-13 07:53:00
3:53 AM,75.9,73.9,94,30.02,10.0,Calm,Calm,-,N/A,,Clear,0,2013-06-13 08:53:00
4:53 AM,75.9,73.9,94,30.02,10.0,Calm,Calm,-,N/A,,Clear,0,2013-06-13 09:53:00
5:53 AM,75.0,73.9,96,30.03,9.0,Calm,Calm,-,N/A,,Partly Cloudy,0,2013-06-13 10:53:00
6:53 AM,75.9,75.0,97,30.05,8.0,Calm,Calm,-,N/A,,Scattered Clouds,0,2013-06-13 11:53:00
7:53 AM,79.0,75.9,90,30.06,10.0,West,6.9,-,N/A,,Scattered Clouds,280,2013-06-13 12:53:00
8:53 AM,82.9,75.9,79,30.06,10.0,West,8.1,-,N/A,,Mostly Cloudy,270,2013-06-13 13:53:00
9:03 AM,82.4,75.2,79,30.07,10.0,West,11.5,-,N/A,,Mostly Cloudy,260,2013-06-13 14:03:00
9:53 AM,86.0,75.9,72,30.07,10.0,West,9.2,-,N/A,,Mostly Cloudy,270,2013-06-13 14:53:00
10:53 AM,88.0,73.0,61,30.06,10.0,WNW,6.9,-,N/A,,Mostly Cloudy,300,2013-06-13 15:53:00
11:53 AM,88.0,72.0,59,30.05,10.0,North,-9999.0,-,N/A,,Mostly Cloudy,0,2013-06-13 16:53:00
12:53 PM,90.0,72.0,55,30.03,10.0,West,10.4,16.1,N/A,,Partly Cloudy,280,2013-06-13 17:53:00
1:53 PM,91.0,69.1,48,30.00,10.0,West,5.8,-,N/A,,Partly Cloudy,270,2013-06-13 18:53:00
2:53 PM,91.9,71.1,50,29.98,10.0,WNW,6.9,18.4,N/A,,Scattered Clouds,290,2013-06-13 19:53:00
3:53 PM,93.0,72.0,50,29.96,10.0,West,6.9,16.1,N/A,,Unknown,260,2013-06-13 20:53:00
4:53 PM,91.0,71.1,52,29.94,10.0,NNW,4.6,-,N/A,,Scattered Clouds,340,2013-06-13 21:53:00
5:53 PM,89.1,71.1,55,29.92,10.0,NW,8.1,-,N/A,,Partly Cloudy,320,2013-06-13 22:53:00
6:53 PM,90.0,72.0,55,29.91,10.0,NNW,3.5,-,N/A,,Partly Cloudy,340,2013-06-13 23:53:00
7:53 PM,86.0,73.0,65,29.91,10.0,Calm,Calm,-,N/A,,Partly Cloudy,0,2013-06-14 00:53:00
8:53 PM,82.0,75.0,79,29.91,10.0,Calm,Calm,-,N/A,,Partly Cloudy,0,2013-06-14 01:53:00
9:53 PM,80.1,75.0,85,29.91,10.0,Calm,Calm,-,N/A,,Clear,0,2013-06-14 02:53:00
10:53 PM,80.1,75.0,85,29.92,10.0,Calm,Calm,-,N/A,,Clear,0,2013-06-14 03:53:00
11:53 PM,80.1,73.9,81,29.92,10.0,Calm,Calm,-,N/A,,Clear,0,2013-06-14 04:53:00